Location: ČR
(50.0000°N, 15.0000°E)
Time: 07:14:49
(UTC+02:00)

ISS - Pass Details

Date: 20 January 2026
Orbit: 414 x 424 km, 51.6° (Epoch: 15 May)

Event Time Altitude Azimuth Distance (km) Brightness Sun altitude
Rises 19:28:35 0° 283° (WNW) 2,372 1.3 -27.5°
Reaches altitude 10° 19:30:41 10° 285° (WNW) 1,510 0.0 -27.9°
Enters shadow 19:31:53 20° 287° (WNW) 1,035 -1.1 -28.1°
